THOR AGENA B DEB, 2092

Orbit data source: Space-Track

THOR AGENA B DEB, 2092 is space debris in LEO originally from a launch on Mon, 29 Nov 1965 UTC launched from the Air Force Western Test Range (AFWTR). Debris objects in space refer to the collection of defunct objects orbiting the Earth. Examples of debris include non-operational satellites, rocket bodies, and fragments generated from explosions, collisions, or faulty payload assembly.

Loading next visibility...
Identifier
2092, 1965-098H
Orbit
LEO
Country
Flag of USUS
Related business
Manufacturer
Unknown
Mission
Spacecraft
Bus & Motor
Unknown
Mass
~1 kg wet, ~1 kg dry
Launch date (UTC)
1965-11-29 (60 years ago)
Launch vehicle
Unknown
Launch site
Air Force Western Test Range (AFWTR)
Object type
Payload
Rocket body
Debris
Shape & HBR
Unknown
Radar Cross Section
Small (<0.1 m²)

Expand to show TLE details & history
Last TLE update: 8 hours ago

TLE from 8 hours ago
0 THOR AGENA B DEB
1 02092U 65098H   25346.93744480  .00002154  00000-0  70052-3 0  9999
2 02092  79.8605 159.9769 1297699 129.0620 243.3349 12.34740579657434
Epoch: 2025-12-12T22:29Z
TLE epoch observation values (Epoch: 2025-12-12T22:29:55.230Z)
Latitude
-0.00004°
Longitude
100.62487°
Altitude
2,089.274 km
Speed
6.616 km/s
True Right ascension
10h 39m 54s
True Declination
0° 00' 00"
Sunlit
Object was in daylight at epoch
Visualization orbit readout
Latitude
Unknown
Longitude
Unknown
Altitude
Unknown
Speed
Unknown
Apparent Right ascension
Unknown
Apparent Declination
Unknown
Sunlit
N/A
Visualization observer readout
Local Sidereal Time
05:21:17
Azimuth
Unknown
Elevation
Unknown
Doppler factor
Unknown
Orbital elements
Apogee altitude
2,552.162 km
Perigee altitude
500.622 km
Semi-major axis
7,904.529 km
Eccentricity
0.12977
Inclination
79.8605°
RAAN
159.9769°
Arg. of periapsis
129.062°
True anomaly
231.04379°
Mean anomaly
243.3349°
Eccentric anomaly
237.09262°
Mean motion
3.08837 °/min
Orbital period
116.57 mins
BSTAR
0.00070052
Loading maneuver chart data...
Computing Atmospheric mass density...
Loading historical data...
Loading historical data...
Loading historical data...
Loading historical data...
Loading historical data...
Loading historical data...
Loading historical data...

Documentation

Showing up to 5 results
|